Hastings, NE

12:13 PM CDT on July 27, 2017 (GMT -0500)
Hastings Municipal

Weather History for KHSI - February, 2014

Change the Weather History Date:

Saturday, February 22, 2014

  Actual Average Record
Temperature  
Mean Temperature 34 °F 32 °F  
Max Temperature 43 °F 42 °F 75 °F (1982)
Min Temperature 25 °F 22 °F -9 °F (1918)
Degree Days  
Heating Degree Days 31 33  
Month to date heating degree days 895 789  
Since 1 July heating degree days 4617 4438  
Cooling Degree Days 0 0  
Month to date cooling degree days 0 0  
Year to date cooling degree days 0 0  
Moisture  
Dew Point 20 °F    
Average Humidity 57    
Maximum Humidity 75    
Minimum Humidity 39    
Precipitation  
Precipitation T in 0.02 in 0.85 in (1971)
Month to date precipitation 0.29 0.36  
Year to date precipitation 0.66 0.77  
Snow  
Snow T in 0.30 in 8.00 in (1971)
Month to date snowfall 6.2 5.4  
Since 1 July snowfall 17.0 21.3  
Snow Depth 0.00 in    
Sea Level Pressure  
Sea Level Pressure 30.02 in    
Wind  
Wind Speed 11 mph (NNE)    
Max Wind Speed 20 mph    
Max Gust Speed 26 mph    
Visibility 9 miles    
Events Snow    
T = Trace of Precipitation, MM = Missing Value Source: NWS Daily Summary

Daily Weather History Graph

Daily Weather History Graph

Search for Another Location

Airport or City:

Trip Planner

Search our weather history database for the weather conditions in past years. The results will help you decide how hot, cold, wet, or windy it might be!

Date:

Astronomy

Feb. 22, 2014 Rise Set
Actual Time 7:17 AM CST 6:17 PM CST
Civil Twilight 6:50 AM CST 6:44 PM CST
Nautical Twilight 6:18 AM CST 7:16 PM CST
Astronomical Twilight 5:46 AM CST 7:48 PM CST
Moon 1:15 AM CST (2/22) 11:28 AM CST (2/22)
Length of Visible Light 11h 54m
Length of Day
10h 59m
Waning Gibbous, 50% of the Moon is Illuminated
Feb 22
Waning Gibbous
Mar 1
New
Mar 8
First Quarter
Mar 16
Full
Mar 23
Last Quarter

Hourly Weather History & Observations

Time (CST) Temp. Windchill Dew Point Humidity Pressure Visibility Wind Dir Wind Speed Gust Speed Precip Events Conditions
12:53 AM 39.0 °F 33.4 °F 21.9 °F 50% 29.87 in 10.0 mi West 8.1 mph - N/A   Overcast
1:53 AM 42.1 °F 36.1 °F 21.9 °F 45% 29.88 in 10.0 mi West 10.4 mph - N/A   Overcast
2:53 AM 37.0 °F 29.8 °F 21.0 °F 52% 29.89 in 10.0 mi WNW 10.4 mph - N/A   Partly Cloudy
3:53 AM 30.9 °F 24.3 °F 19.9 °F 64% 29.90 in 10.0 mi WNW 6.9 mph - N/A   Scattered Clouds
4:53 AM 30.9 °F 27.5 °F 19.9 °F 64% 29.91 in 10.0 mi NW 3.5 mph - N/A   Clear
5:53 AM 30.0 °F - 19.0 °F 64% 29.94 in 10.0 mi Calm Calm - N/A   Partly Cloudy
6:53 AM 25.0 °F 18.1 °F 18.0 °F 75% 29.97 in 10.0 mi NNW 5.8 mph - N/A   Partly Cloudy
7:53 AM 28.9 °F 21.9 °F 21.0 °F 72% 29.99 in 10.0 mi North 6.9 mph - N/A   Clear
8:53 AM 35.1 °F 26.4 °F 24.1 °F 64% 30.00 in 10.0 mi North 12.7 mph - N/A   Clear
9:53 AM 37.0 °F 27.4 °F 25.0 °F 62% 30.01 in 10.0 mi NNE 17.3 mph - N/A   Clear
10:53 AM 39.0 °F 29.9 °F 24.1 °F 55% 30.00 in 10.0 mi NE 17.3 mph - N/A   Clear
11:53 AM 39.0 °F 30.3 °F 21.9 °F 50% 30.01 in 10.0 mi NNE 16.1 mph 24.2 mph N/A   Clear
12:53 PM 41.0 °F 33.5 °F 21.0 °F 45% 30.01 in 10.0 mi NNE 13.8 mph - N/A   Clear
1:53 PM 42.1 °F 34.5 °F 19.9 °F 41% 30.00 in 10.0 mi NE 15.0 mph - N/A   Clear
2:53 PM 42.1 °F 34.5 °F 19.9 °F 41% 29.99 in 10.0 mi NE 15.0 mph - N/A   Clear
3:53 PM 39.9 °F 32.1 °F 18.0 °F 41% 30.01 in 10.0 mi ENE 13.8 mph - N/A   Partly Cloudy
4:53 PM 39.0 °F 30.6 °F 18.0 °F 43% 30.02 in 10.0 mi NE 15.0 mph - N/A   Scattered Clouds
5:53 PM 36.0 °F 28.5 °F 18.0 °F 48% 30.05 in 10.0 mi NE 10.4 mph - N/A   Overcast
6:53 PM 35.1 °F 29.3 °F 18.0 °F 50% 30.08 in 10.0 mi ENE 6.9 mph - N/A   Overcast
7:53 PM 34.0 °F 28.0 °F 18.0 °F 52% 30.11 in 10.0 mi ENE 6.9 mph - N/A   Overcast
8:53 PM 33.1 °F 23.9 °F 19.9 °F 59% 30.14 in 8.0 mi ENE 12.7 mph - 0.00 in Snow Light Snow
9:22 PM 30.9 °F 20.7 °F 21.9 °F 69% 30.09 in 4.0 mi ENE 13.8 mph - 0.00 in Snow Light Snow
9:37 PM 30.9 °F 21.7 °F 21.0 °F 67% 30.11 in 8.0 mi NE 11.5 mph - 0.00 in Snow Light Snow
9:53 PM 30.0 °F 19.5 °F 19.0 °F 64% 30.17 in 6.0 mi ENE 13.8 mph - 0.00 in Snow Light Snow
10:53 PM 28.9 °F 18.2 °F 18.0 °F 64% 30.21 in 6.0 mi NE 13.8 mph - 0.00 in Snow Light Snow
11:53 PM 28.9 °F 18.2 °F 14.0 °F 54% 30.20 in 10.0 mi NE 13.8 mph - 0.00 in   Overcast